Powrót do katalogu

NOAA 16 DEB

AktywnySSO
NORAD 41262·DEBRIS·🇺🇸 United States

Wystrzelony Sep 21, 2000 z Vandenberg Space Force Base

Loading…

Następne Przeloty (najbliższe 24 godziny)

TLE

ŚwieżeSource: Space-Track

Epoka: Sep 13, 2026, 07:43 UTC

1 41262U 00055FN  26256.32203286  .00003873  00000-0  16379-2 0  9991
2 41262  98.7735 286.4017 0045121  58.7648 301.7941 14.25538874552166

Śledź NOAA 16 DEB w czasie rzeczywistym z AllMySat

Download on the App Store